Find Starlink 31091

NORAD ID: 58629 Int'l Des: 2023-203 Owner: SPXS Country: US Constellation: starlink operational
LEOCIRCULAR

Current View

Loading 3D Globe...

About Starlink 31091

Starlink 31091 (NORAD 58629) is a starlink constellation satellite (v2 mini) launched Dec 23, 2023 by SPXS of US. It operates in LEO, CIRCULAR orbit with a mass of 730.00 kg.

Upcoming Passes

Passes for default location (London). Set your location on the main map for personalized predictions.

Altitude History

Loading altitude history...

Two-Line Element Set

1 58629U 23203M 26235.91314224 .00000608 00000-0 31615-4 0 9998
2 58629 43.0026 206.3489 0001425 271.4298 88.6390 15.27579476149094
Epoch: Aug 23, 2026 • Age: 13 hours

Current Status

Altitude 484.0 km
Apogee / Perigee N/A
Velocity 7.63 km/s
Sub-Earth Point 28.56°N, 106.17°E
Launch Date Dec 23, 2023
Age 2.6 years
Type internet

Technical Details

Classification Payload
Mass 730.00 kg
Dry Mass 700.00 kg
Total Mass 730.00 kg
Length 0.30 m
Diameter 4.10 m
Span 29.00 m
Shape Box + pan
Manufacturer SPXS
Bus Type Starlink V2M
Phase Status In Orbit
Owner/State SPXS/US

Most Searched